Sparrow (43881 NORAD) Tracking and Keplerian Element Data

This shows tracking and keplerian element data for the satellite.

Feedback or suggestion? Click here.




ElementValue
Catalog43881
NameSparrow
Epoch Orbit2835
Epoch Day199.18358867
Epoch Year2019
RAAN106.8887
Inclination97.7178
Eccentricity0.0011047
Argument of Perigee289.2255
Mean Anonmoly70.777
Mean Motion14.96292778
Decay Rate-2.24E-06
L11 43881U 18111F 19199.18358867 -.00000224 00000-0 -14651-4 0 9992
L22 43881 97.7178 106.8887 0011047 289.2255 70.7770 14.96292778 28350

Live tracking and technical data element details for Sparrow (NORAD 43881). Sparrow can be tracked NOW for your location showing map with azimuth and elevation plus other details from your city location.

Track the satellite on the map from your city or location and see movement details for azimuth, elevation, latitude, longitude, range, height, and movement on the map or in text.







IsCatalogInMostPopularTable: catalog: 43881, numindb: 88
Update: records affected: 1



GetName: 43881 Sparrow

Hit Count: updated at: Sat, 20 Jul 2019 21:57:52 GMT